Time,TemperatureF,DewpointF,PressureIn,WindDirection,WindDirectionDegrees,WindSpeedMPH,WindSpeedGustMPH,Humidity,HourlyPrecipIn,Conditions,Clouds,dailyrainin,SoftwareType,DateUTC
2013-01-29 00:01:00,45.0,44.0,29.71,SE,136,4.0,11.0,96,0.00,,,0.00,,2013-01-29 06:01:00,
2013-01-29 00:11:00,45.0,44.0,29.71,SE,136,4.0,11.0,96,0.00,,,0.00,,2013-01-29 06:11:00,
2013-01-29 00:21:00,45.0,44.0,29.70,SE,143,3.0,8.0,96,0.00,,,0.00,,2013-01-29 06:21:00,
2013-01-29 00:32:00,45.0,44.0,29.70,SE,143,3.0,8.0,96,0.00,,,0.00,,2013-01-29 06:32:00,
2013-01-29 00:42:00,45.0,44.0,29.70,SE,143,3.0,8.0,96,0.00,,,0.00,,2013-01-29 06:42:00,
2013-01-29 00:50:00,53.0,52.0,29.67,SE,140,4.0,9.0,97,0.00,,,0.00,,2013-01-29 06:50:00,
2013-01-29 00:52:00,48.0,47.0,29.70,SE,145,5.0,11.0,96,0.00,,,0.00,,2013-01-29 06:52:00,
2013-01-29 01:01:00,51.0,50.0,29.69,ESE,111,4.0,11.0,96,0.00,,,0.00,,2013-01-29 07:01:00,
2013-01-29 01:11:00,51.0,50.0,29.69,ESE,111,4.0,11.0,96,0.00,,,0.00,,2013-01-29 07:11:00,
2013-01-29 01:21:00,53.0,52.0,29.67,SE,140,4.0,9.0,97,0.00,,,0.00,,2013-01-29 07:21:00,
2013-01-29 01:32:00,53.0,52.0,29.67,SE,140,4.0,9.0,97,0.00,,,0.00,,2013-01-29 07:32:00,
2013-01-29 01:42:00,53.0,52.0,29.67,SE,140,4.0,9.0,97,0.00,,,0.00,,2013-01-29 07:42:00,
2013-01-29 02:02:00,55.0,54.0,29.67,ESE,108,5.0,14.0,97,0.00,,,0.00,,2013-01-29 08:02:00,
2013-01-29 02:11:00,55.0,54.0,29.67,ESE,108,5.0,14.0,97,0.00,,,0.00,,2013-01-29 08:11:00,
2013-01-29 02:21:00,55.0,54.0,29.66,ESE,103,5.0,10.0,97,0.00,,,0.00,,2013-01-29 08:21:00,
2013-01-29 02:31:00,56.0,55.0,29.66,East,89,8.0,15.0,97,0.00,,,0.00,,2013-01-29 08:31:00,
2013-01-29 02:41:00,56.0,55.0,29.66,East,89,8.0,15.0,97,0.00,,,0.00,,2013-01-29 08:41:00,
2013-01-29 02:52:00,56.0,55.0,29.66,SE,140,5.0,12.0,95,0.00,,,0.00,,2013-01-29 08:52:00,
2013-01-29 03:01:00,56.0,54.0,29.65,ESE,111,6.0,10.0,94,0.00,,,0.00,,2013-01-29 09:01:00,
2013-01-29 03:11:00,56.0,54.0,29.65,ESE,111,6.0,10.0,94,0.00,,,0.00,,2013-01-29 09:11:00,
2013-01-29 03:21:00,56.0,54.0,29.64,East,83,6.0,14.0,93,0.00,,,0.00,,2013-01-29 09:21:00,
2013-01-29 03:32:00,57.0,55.0,29.65,SE,143,5.0,14.0,93,0.00,,,0.00,,2013-01-29 09:32:00,
2013-01-29 03:42:00,57.0,55.0,29.65,SE,143,5.0,14.0,93,0.00,,,0.00,,2013-01-29 09:42:00,
2013-01-29 03:51:00,57.0,55.0,29.64,SE,140,7.0,12.0,93,0.00,,,0.00,,2013-01-29 09:51:00,
2013-01-29 04:01:00,57.0,55.0,29.63,SSE,151,6.0,13.0,93,0.00,,,0.00,,2013-01-29 10:01:00,
2013-01-29 04:11:00,57.0,55.0,29.63,SSE,151,6.0,13.0,93,0.00,,,0.00,,2013-01-29 10:11:00,
2013-01-29 04:21:00,57.0,55.0,29.63,SSE,151,6.0,13.0,93,0.00,,,0.00,,2013-01-29 10:21:00,
2013-01-29 04:32:00,58.0,56.0,29.62,SE,126,6.0,14.0,93,0.00,,,0.00,,2013-01-29 10:32:00,
2013-01-29 04:42:00,58.0,56.0,29.62,SE,126,6.0,14.0,93,0.00,,,0.00,,2013-01-29 10:42:00,
2013-01-29 04:52:00,58.0,56.0,29.62,SE,126,6.0,14.0,93,0.00,,,0.00,,2013-01-29 10:52:00,
2013-01-29 05:01:00,58.0,55.0,29.61,NNE,18,6.0,14.0,91,0.00,,,0.00,,2013-01-29 11:01:00,
2013-01-29 05:11:00,58.0,55.0,29.61,NNE,18,6.0,14.0,91,0.00,,,0.00,,2013-01-29 11:11:00,
2013-01-29 05:22:00,57.0,54.0,29.61,SE,146,5.0,10.0,91,0.00,,,0.00,,2013-01-29 11:22:00,
2013-01-29 05:32:00,57.0,54.0,29.61,SE,146,5.0,10.0,91,0.00,,,0.00,,2013-01-29 11:32:00,
2013-01-29 05:42:00,57.0,54.0,29.61,SE,146,5.0,10.0,91,0.00,,,0.00,,2013-01-29 11:42:00,
2013-01-29 05:52:00,58.0,55.0,29.60,SE,125,4.0,15.0,91,0.00,,,0.00,,2013-01-29 11:52:00,
2013-01-29 06:02:00,58.0,56.0,29.60,SE,132,4.0,12.0,92,0.00,,,0.00,,2013-01-29 12:02:00,
2013-01-29 06:12:00,58.0,56.0,29.60,SE,132,4.0,12.0,92,0.00,,,0.00,,2013-01-29 12:12:00,
2013-01-29 06:22:00,57.0,55.0,29.60,SE,132,5.0,14.0,92,0.00,,,0.00,,2013-01-29 12:22:00,
2013-01-29 06:32:00,57.0,55.0,29.60,SE,140,7.0,15.0,93,0.00,,,0.00,,2013-01-29 12:32:00,
2013-01-29 06:43:00,57.0,55.0,29.60,SE,140,7.0,15.0,93,0.00,,,0.00,,2013-01-29 12:43:00,
2013-01-29 06:52:00,58.0,56.0,29.60,SSE,147,3.0,13.0,92,0.00,,,0.00,,2013-01-29 12:52:00,
2013-01-29 07:02:00,58.0,56.0,29.60,SE,146,5.0,12.0,92,0.00,,,0.00,,2013-01-29 13:02:00,
2013-01-29 07:12:00,58.0,56.0,29.60,SE,146,5.0,12.0,92,0.00,,,0.00,,2013-01-29 13:12:00,
2013-01-29 07:22:00,58.0,56.0,29.60,South,190,3.0,11.0,92,0.00,,,0.00,,2013-01-29 13:22:00,
2013-01-29 07:32:00,58.0,56.0,29.60,SSW,209,3.0,8.0,92,0.00,,,0.00,,2013-01-29 13:32:00,
2013-01-29 07:42:00,58.0,56.0,29.60,SSW,209,3.0,8.0,92,0.00,,,0.00,,2013-01-29 13:42:00,
2013-01-29 07:52:00,57.0,55.0,29.59,SE,141,4.0,10.0,92,0.00,,,0.00,,2013-01-29 13:52:00,
2013-01-29 08:02:00,58.0,56.0,29.59,SSE,159,4.0,9.0,92,0.00,,,0.00,,2013-01-29 14:02:00,
2013-01-29 08:12:00,58.0,55.0,29.59,SE,130,3.0,13.0,91,0.00,,,0.00,,2013-01-29 14:12:00,
2013-01-29 08:22:00,58.0,55.0,29.59,SE,130,3.0,13.0,91,0.00,,,0.00,,2013-01-29 14:22:00,
2013-01-29 08:33:00,58.0,55.0,29.60,East,86,4.0,10.0,91,0.00,,,0.00,,2013-01-29 14:33:00,
2013-01-29 08:43:00,58.0,55.0,29.60,East,86,4.0,10.0,91,0.00,,,0.00,,2013-01-29 14:43:00,
2013-01-29 08:52:00,58.0,55.0,29.60,SE,126,4.0,12.0,91,0.00,,,0.00,,2013-01-29 14:52:00,
2013-01-29 09:02:00,58.0,55.0,29.60,NNW,348,4.0,10.0,91,0.00,,,0.00,,2013-01-29 15:02:00,
2013-01-29 09:12:00,58.0,55.0,29.60,NNW,348,4.0,10.0,91,0.00,,,0.00,,2013-01-29 15:12:00,
2013-01-29 09:22:00,58.0,55.0,29.59,SE,143,4.0,12.0,91,0.00,,,0.00,,2013-01-29 15:22:00,
2013-01-29 09:33:00,58.0,55.0,29.58,SSE,149,5.0,9.0,91,0.00,,,0.00,,2013-01-29 15:33:00,
2013-01-29 09:43:00,58.0,55.0,29.58,SSE,149,5.0,9.0,91,0.00,,,0.00,,2013-01-29 15:43:00,
2013-01-29 09:52:00,59.0,56.0,29.57,SE,132,4.0,16.0,91,0.00,,,0.00,,2013-01-29 15:52:00,
2013-01-29 10:02:00,59.0,56.0,29.57,North,350,5.0,14.0,91,0.00,,,0.00,,2013-01-29 16:02:00,
2013-01-29 10:12:00,59.0,56.0,29.57,North,350,5.0,14.0,91,0.00,,,0.00,,2013-01-29 16:12:00,
2013-01-29 10:22:00,59.0,56.0,29.56,NE,53,4.0,13.0,91,0.00,,,0.00,,2013-01-29 16:22:00,
2013-01-29 10:32:00,60.0,57.0,29.57,ESE,123,5.0,14.0,90,0.00,,,0.00,,2013-01-29 16:32:00,
2013-01-29 10:43:00,60.0,57.0,29.57,ESE,123,5.0,14.0,90,0.00,,,0.00,,2013-01-29 16:43:00,
2013-01-29 10:52:00,60.0,57.0,29.58,SE,130,6.0,13.0,90,0.00,,,0.00,,2013-01-29 16:52:00,
2013-01-29 11:03:00,60.0,57.0,29.59,SSE,148,5.0,13.0,89,0.00,,,0.00,,2013-01-29 17:03:00,
2013-01-29 11:12:00,60.0,57.0,29.59,SSE,148,5.0,13.0,89,0.00,,,0.00,,2013-01-29 17:12:00,
2013-01-29 11:22:00,61.0,58.0,29.57,ESE,111,7.0,19.0,89,0.00,,,0.00,,2013-01-29 17:22:00,
2013-01-29 11:32:00,61.0,58.0,29.57,SSE,157,5.0,17.0,89,0.00,,,0.00,,2013-01-29 17:32:00,
2013-01-29 11:42:00,61.0,58.0,29.57,SSE,157,5.0,17.0,89,0.00,,,0.00,,2013-01-29 17:42:00,
2013-01-29 11:52:00,61.0,57.0,29.55,WSW,249,4.0,14.0,88,0.00,,,0.00,,2013-01-29 17:52:00,
2013-01-29 12:04:00,61.0,57.0,29.54,SE,134,3.0,11.0,88,0.00,,,0.00,,2013-01-29 18:04:00,
2013-01-29 12:12:00,61.0,57.0,29.54,SE,134,3.0,11.0,88,0.00,,,0.00,,2013-01-29 18:12:00,
2013-01-29 12:22:00,61.0,58.0,29.53,ESE,123,3.0,11.0,89,0.00,,,0.00,,2013-01-29 18:22:00,
2013-01-29 12:33:00,62.0,59.0,29.53,SE,136,3.0,8.0,89,0.00,,,0.00,,2013-01-29 18:33:00,
2013-01-29 12:42:00,62.0,59.0,29.53,SE,136,3.0,8.0,89,0.00,,,0.00,,2013-01-29 18:42:00,
2013-01-29 12:52:00,62.0,59.0,29.53,ESE,123,3.0,12.0,89,0.00,,,0.00,,2013-01-29 18:52:00,
2013-01-29 13:02:00,62.0,58.0,29.52,ESE,115,2.0,11.0,88,0.00,,,0.00,,2013-01-29 19:02:00,
2013-01-29 13:12:00,62.0,58.0,29.52,ESE,115,2.0,11.0,88,0.00,,,0.00,,2013-01-29 19:12:00,
2013-01-29 13:22:00,62.0,58.0,29.51,ESE,122,0.0,9.0,88,0.00,,,0.00,,2013-01-29 19:22:00,
2013-01-29 13:32:00,61.0,58.0,29.49,ENE,77,1.0,8.0,89,0.00,,,0.00,,2013-01-29 19:32:00,
2013-01-29 13:42:00,61.0,58.0,29.49,ENE,77,1.0,8.0,89,0.00,,,0.00,,2013-01-29 19:42:00,
2013-01-29 13:52:00,61.0,58.0,29.49,West,260,1.0,11.0,89,0.00,,,0.00,,2013-01-29 19:52:00,
2013-01-29 14:02:00,61.0,57.0,29.49,WSW,257,2.0,8.0,87,0.01,,,0.01,,2013-01-29 20:02:00,
2013-01-29 14:12:00,61.0,57.0,29.49,WSW,257,2.0,8.0,87,0.01,,,0.01,,2013-01-29 20:12:00,
2013-01-29 14:22:00,60.0,56.0,29.48,West,266,0.0,7.0,88,0.01,,,0.01,,2013-01-29 20:22:00,
2013-01-29 14:33:00,59.0,56.0,29.47,West,263,0.0,5.0,89,0.01,,,0.01,,2013-01-29 20:33:00,
2013-01-29 14:42:00,59.0,56.0,29.47,West,263,0.0,5.0,89,0.01,,,0.01,,2013-01-29 20:42:00,
2013-01-29 14:53:00,58.0,55.0,29.50,WSW,249,1.0,5.0,91,0.06,,,0.06,,2013-01-29 20:53:00,
2013-01-29 15:03:00,57.0,55.0,29.47,WSW,253,3.0,5.0,92,0.08,,,0.09,,2013-01-29 21:03:00,
2013-01-29 15:12:00,57.0,55.0,29.47,WSW,253,3.0,5.0,92,0.08,,,0.09,,2013-01-29 21:12:00,
2013-01-29 15:22:00,57.0,55.0,29.47,WSW,253,3.0,5.0,92,0.08,,,0.09,,2013-01-29 21:22:00,
2013-01-29 15:33:00,56.0,54.0,29.48,WSW,254,4.0,8.0,94,0.14,,,0.15,,2013-01-29 21:33:00,
2013-01-29 15:42:00,56.0,54.0,29.48,WSW,254,4.0,8.0,94,0.14,,,0.15,,2013-01-29 21:42:00,
2013-01-29 15:53:00,56.0,54.0,29.47,NW,319,2.0,6.0,94,0.13,,,0.20,,2013-01-29 21:53:00,
2013-01-29 16:02:00,55.0,53.0,29.47,WNW,301,2.0,7.0,94,0.13,,,0.22,,2013-01-29 22:02:00,
2013-01-29 16:12:00,55.0,53.0,29.47,WNW,301,2.0,7.0,94,0.13,,,0.22,,2013-01-29 22:12:00,
2013-01-29 16:22:00,54.0,52.0,29.47,NNW,340,1.0,4.0,94,0.12,,,0.23,,2013-01-29 22:22:00,
2013-01-29 16:33:00,52.0,50.0,29.46,NW,323,2.0,5.0,94,0.08,,,0.24,,2013-01-29 22:33:00,
2013-01-29 16:42:00,52.0,50.0,29.46,NW,323,2.0,5.0,94,0.08,,,0.24,,2013-01-29 22:42:00,
2013-01-29 16:52:00,52.0,50.0,29.46,NW,315,0.0,3.0,94,0.05,,,0.25,,2013-01-29 22:52:00,
2013-01-29 17:02:00,51.0,50.0,29.47,NW,314,0.0,3.0,95,0.06,,,0.28,,2013-01-29 23:02:00,
2013-01-29 17:12:00,51.0,50.0,29.47,NW,314,0.0,3.0,95,0.06,,,0.28,,2013-01-29 23:12:00,
2013-01-29 17:22:00,51.0,49.0,29.46,NW,314,0.0,1.0,94,0.08,,,0.31,,2013-01-29 23:22:00,
2013-01-29 17:33:00,51.0,50.0,29.46,NW,314,0.0,0.0,95,0.10,,,0.34,,2013-01-29 23:33:00,
2013-01-29 17:42:00,51.0,50.0,29.46,NW,314,0.0,0.0,95,0.10,,,0.34,,2013-01-29 23:42:00,
2013-01-29 17:52:00,50.0,49.0,29.47,NW,314,0.0,0.0,95,0.11,,,0.36,,2013-01-29 23:52:00,
2013-01-29 18:03:00,50.0,49.0,29.47,NW,314,0.0,0.0,95,0.11,,,0.39,,2013-01-30 00:03:00,
2013-01-29 18:12:00,50.0,49.0,29.47,NW,314,0.0,0.0,95,0.11,,,0.39,,2013-01-30 00:12:00,
2013-01-29 18:22:00,50.0,49.0,29.46,NW,314,0.0,2.0,95,0.11,,,0.42,,2013-01-30 00:22:00,
2013-01-29 18:32:00,50.0,49.0,29.47,NW,314,0.0,1.0,95,0.10,,,0.44,,2013-01-30 00:32:00,
2013-01-29 18:42:00,50.0,49.0,29.47,NW,314,0.0,1.0,95,0.10,,,0.44,,2013-01-30 00:42:00,
2013-01-29 18:52:00,50.0,49.0,29.46,NW,314,0.0,0.0,95,0.11,,,0.47,,2013-01-30 00:52:00,
2013-01-29 19:02:00,49.0,48.0,29.45,NW,314,0.0,0.0,95,0.11,,,0.50,,2013-01-30 01:02:00,
2013-01-29 19:12:00,49.0,48.0,29.45,NW,314,0.0,0.0,95,0.11,,,0.50,,2013-01-30 01:12:00,
2013-01-29 19:22:00,49.0,48.0,29.45,NW,314,0.0,0.0,95,0.11,,,0.53,,2013-01-30 01:22:00,
2013-01-29 19:32:00,49.0,48.0,29.45,NW,314,0.0,0.0,95,0.12,,,0.56,,2013-01-30 01:32:00,
2013-01-29 19:42:00,49.0,48.0,29.45,NW,314,0.0,0.0,95,0.12,,,0.56,,2013-01-30 01:42:00,
2013-01-29 19:52:00,49.0,48.0,29.45,NW,313,0.0,2.0,95,0.11,,,0.57,,2013-01-30 01:52:00,
2013-01-29 20:02:00,49.0,48.0,29.43,NW,313,0.0,1.0,95,0.10,,,0.60,,2013-01-30 02:02:00,
2013-01-29 20:12:00,49.0,48.0,29.43,NW,313,0.0,1.0,95,0.10,,,0.60,,2013-01-30 02:12:00,
2013-01-29 20:22:00,48.0,47.0,29.44,NW,313,0.0,1.0,95,0.09,,,0.62,,2013-01-30 02:22:00,
2013-01-29 20:33:00,48.0,47.0,29.44,NW,313,0.0,1.0,96,0.07,,,0.63,,2013-01-30 02:33:00,
2013-01-29 20:42:00,48.0,47.0,29.44,NW,313,0.0,1.0,96,0.07,,,0.63,,2013-01-30 02:42:00,
2013-01-29 20:52:00,48.0,47.0,29.44,NW,313,0.0,1.0,95,0.07,,,0.65,,2013-01-30 02:52:00,
2013-01-29 21:03:00,47.0,46.0,29.43,NW,313,0.0,1.0,96,0.06,,,0.66,,2013-01-30 03:03:00,
2013-01-29 21:12:00,47.0,46.0,29.43,NW,313,0.0,1.0,96,0.06,,,0.66,,2013-01-30 03:12:00,
2013-01-29 21:22:00,47.0,46.0,29.41,NW,313,1.0,3.0,95,0.06,,,0.68,,2013-01-30 03:22:00,
2013-01-29 21:32:00,46.0,45.0,29.41,WNW,302,0.0,3.0,95,0.05,,,0.68,,2013-01-30 03:32:00,
2013-01-29 21:42:00,46.0,45.0,29.41,WNW,302,0.0,3.0,95,0.05,,,0.68,,2013-01-30 03:42:00,
2013-01-29 21:52:00,45.0,44.0,29.41,WNW,302,0.0,3.0,95,0.05,,,0.70,,2013-01-30 03:52:00,
2013-01-29 22:02:00,45.0,44.0,29.41,West,278,2.0,4.0,95,0.05,,,0.71,,2013-01-30 04:02:00,
2013-01-29 22:12:00,45.0,44.0,29.41,West,278,2.0,4.0,95,0.05,,,0.71,,2013-01-30 04:12:00,
2013-01-29 22:22:00,44.0,43.0,29.43,NW,311,2.0,5.0,95,0.04,,,0.72,,2013-01-30 04:22:00,
2013-01-29 22:32:00,44.0,43.0,29.43,NW,311,2.0,5.0,95,0.04,,,0.72,,2013-01-30 04:32:00,
2013-01-29 22:41:00,44.0,43.0,29.43,NW,311,2.0,5.0,95,0.04,,,0.72,,2013-01-30 04:41:00,
2013-01-29 22:52:00,43.0,42.0,29.41,NW,317,2.0,5.0,95,0.05,,,0.75,,2013-01-30 04:52:00,
2013-01-29 23:03:00,43.0,42.0,29.41,WNW,299,2.0,7.0,96,0.05,,,0.76,,2013-01-30 05:03:00,
2013-01-29 23:12:00,43.0,42.0,29.41,WNW,299,2.0,7.0,96,0.05,,,0.76,,2013-01-30 05:12:00,
2013-01-29 23:22:00,42.0,41.0,29.41,West,276,2.0,5.0,95,0.04,,,0.76,,2013-01-30 05:22:00,
2013-01-29 23:32:00,42.0,41.0,29.39,NNW,333,2.0,4.0,95,0.02,,,0.76,,2013-01-30 05:32:00,
2013-01-29 23:43:00,42.0,41.0,29.39,NNW,333,2.0,4.0,95,0.02,,,0.76,,2013-01-30 05:43:00,
2013-01-29 23:52:00,41.0,40.0,29.40,NNW,327,4.0,7.0,96,0.02,,,0.77,,2013-01-30 05:52:00,